When you browse on this site, cookies collect data to enhance your experience and personalize the content and advertising you see.
Visit our Privacy Policy to learn more. By continuing to use the site, you agree to this use of cookies and data.

Hourly Weather Perevoloki-Vozvratnye

Today, 6 July, Monday

Time Temperature Precipitation Wind Pressure Humidity
00:00 +19°C° 0 mm 1 mps 745 mmHg 92%
01:00 +19°C° 0 mm 1 mps 745 mmHg 92%
02:00 +18°C° 0 mm 1 mps 745 mmHg 90%
03:00 +18°C° 0 mm 1 mps 745 mmHg 90%
04:00 +19°C° 0 mm 1 mps 745 mmHg 91%
05:00 +19°C° 0 mm 1 mps 745 mmHg 92%
06:00 +21°C° 0 mm 1 mps 745 mmHg 87%
07:00 +22°C° 0 mm 1 mps 745 mmHg 82%
08:00 +23°C° 0 mm 1 mps 745 mmHg 77%
09:00 +25°C° 0 mm 1 mps 745 mmHg 72%
10:00 +26°C° 0 mm 1 mps 745 mmHg 67%
11:00 +27°C° 0 mm 1 mps 745 mmHg 62%
12:00 +27°C° 0 mm 1 mps 745 mmHg 60%
13:00 +28°C° 0 mm 1 mps 745 mmHg 59%
14:00 +28°C° 0 mm 1 mps 745 mmHg 57%
15:00 +28°C° 0 mm 1 mps 744 mmHg 60%
16:00 +28°C° 0 mm 1 mps 744 mmHg 63%
17:00 +28°C° 0 mm 1 mps 744 mmHg 65%
18:00 +26°C° 0 mm 1 mps 744 mmHg 69%
19:00 +25°C° 0 mm 1 mps 744 mmHg 74%
20:00 +23°C° 0 mm 1 mps 744 mmHg 78%
21:00 +22°C° 0 mm 1 mps 744 mmHg 81%
22:00 +22°C° 0 mm 1 mps 744 mmHg 83%
23:00 +21°C° 0 mm 1 mps 744 mmHg 86%

Tomorrow, 7 July, Tuesday

Time Temperature Precipitation Wind Pressure Humidity
00:00 +21°C° 0 mm 1 mps 743 mmHg 87%
01:00 +19°C° 0 mm 2 mps 743 mmHg 88%
02:00 +19°C° 0 mm 2 mps 743 mmHg 89%
03:00 +19°C° 0 mm 2 mps 743 mmHg 89%
04:00 +20°C° 0 mm 2 mps 743 mmHg 89%
05:00 +20°C° 0 mm 2 mps 743 mmHg 89%
06:00 +23°C° 0.1 mm 2 mps 742 mmHg 86%
07:00 +25°C° 0.1 mm 3 mps 742 mmHg 83%
08:00 +26°C° 0.1 mm 3 mps 742 mmHg 81%
09:00 +28°C° 0.9 mm 3 mps 742 mmHg 75%
10:00 +29°C° 0.9 mm 4 mps 742 mmHg 69%
11:00 +32°C° 0.9 mm 4 mps 741 mmHg 63%
12:00 +32°C° 0.2 mm 4 mps 741 mmHg 63%
13:00 +32°C° 0.2 mm 4 mps 741 mmHg 64%
14:00 +32°C° 0.2 mm 4 mps 741 mmHg 64%
15:00 +32°C° 0.6 mm 4 mps 740 mmHg 69%
16:00 +30°C° 0.6 mm 3 mps 740 mmHg 73%
17:00 +30°C° 0.6 mm 3 mps 739 mmHg 78%
18:00 +28°C° 0.2 mm 3 mps 739 mmHg 80%
19:00 +27°C° 0.2 mm 3 mps 739 mmHg 82%
20:00 +26°C° 0.2 mm 3 mps 739 mmHg 84%
21:00 +25°C° 0.3 mm 3 mps 739 mmHg 84%
22:00 +24°C° 0.3 mm 3 mps 739 mmHg 84%
23:00 +22°C° 0.3 mm 3 mps 739 mmHg 83%

Day after tomorrow, 8 July, Wednesday

Time Temperature Precipitation Wind Pressure Humidity
00:00 +21°C° 0 mm 2 mps 739 mmHg 84%
01:00 +21°C° 0 mm 2 mps 739 mmHg 84%
02:00 +21°C° 0 mm 1 mps 738 mmHg 84%
03:00 +20°C° 0.1 mm 2 mps 738 mmHg 85%
04:00 +20°C° 0.1 mm 2 mps 738 mmHg 86%
05:00 +20°C° 0.1 mm 2 mps 738 mmHg 86%
06:00 +21°C° 0.8 mm 3 mps 739 mmHg 88%
07:00 +21°C° 0.8 mm 3 mps 739 mmHg 90%
08:00 +21°C° 0.8 mm 4 mps 739 mmHg 91%
09:00 +22°C° 0 mm 4 mps 740 mmHg 89%
10:00 +22°C° 0 mm 4 mps 740 mmHg 87%
11:00 +22°C° 0 mm 4 mps 741 mmHg 85%
12:00 +22°C° 0 mm 4 mps 741 mmHg 85%
13:00 +22°C° 0 mm 4 mps 742 mmHg 84%
14:00 +21°C° 0 mm 4 mps 742 mmHg 84%
15:00 +20°C° 0.4 mm 4 mps 742 mmHg 86%
16:00 +19°C° 0.4 mm 4 mps 742 mmHg 88%
17:00 +18°C° 0.4 mm 4 mps 743 mmHg 90%
18:00 +18°C° 0.2 mm 4 mps 743 mmHg 90%
19:00 +18°C° 0.2 mm 4 mps 743 mmHg 90%
20:00 +17°C° 0.2 mm 4 mps 743 mmHg 90%
21:00 +17°C° 0.2 mm 4 mps 743 mmHg 90%
22:00 +17°C° 0.2 mm 4 mps 743 mmHg 91%
23:00 +16°C° 0.2 mm 3 mps 743 mmHg 91%

9 July, Thursday

Time Temperature Precipitation Wind Pressure Humidity
00:00 +15°C° 0.1 mm 4 mps 743 mmHg 92%
01:00 +15°C° 0.1 mm 4 mps 743 mmHg 92%
02:00 +14°C° 0.1 mm 4 mps 743 mmHg 93%
03:00 +14°C° 0 mm 4 mps 743 mmHg 92%
04:00 +14°C° 0 mm 4 mps 743 mmHg 91%
05:00 +13°C° 0 mm 3 mps 744 mmHg 90%
06:00 +14°C° 0 mm 3 mps 744 mmHg 87%
07:00 +16°C° 0 mm 3 mps 744 mmHg 85%
08:00 +17°C° 0 mm 4 mps 744 mmHg 82%
09:00 +18°C° 0.2 mm 4 mps 744 mmHg 78%
10:00 +19°C° 0.2 mm 4 mps 744 mmHg 74%
11:00 +20°C° 0.2 mm 5 mps 744 mmHg 70%
12:00 +20°C° 0.2 mm 5 mps 744 mmHg 69%
13:00 +21°C° 0.2 mm 5 mps 744 mmHg 69%
14:00 +21°C° 0.2 mm 5 mps 745 mmHg 68%
15:00 +20°C° 0.3 mm 5 mps 745 mmHg 70%
16:00 +20°C° 0.3 mm 4 mps 745 mmHg 73%
17:00 +20°C° 0.3 mm 3 mps 745 mmHg 75%
18:00 +18°C° 0.4 mm 3 mps 745 mmHg 81%
19:00 +17°C° 0.4 mm 3 mps 746 mmHg 86%
20:00 +14°C° 0.4 mm 3 mps 746 mmHg 91%
21:00 +13°C° 0 mm 3 mps 746 mmHg 92%
22:00 +13°C° 0 mm 3 mps 746 mmHg 93%
23:00 +12°C° 0 mm 3 mps 747 mmHg 95%

10 July, Friday

Time Temperature Precipitation Wind Pressure Humidity
00:00 +12°C° 0 mm 3 mps 747 mmHg 95%
01:00 +11°C° 0 mm 3 mps 747 mmHg 94%
02:00 +11°C° 0 mm 3 mps 747 mmHg 94%
03:00 +11°C° 0 mm 3 mps 748 mmHg 94%
04:00 +11°C° 0 mm 3 mps 748 mmHg 93%
05:00 +12°C° 0 mm 3 mps 749 mmHg 93%
06:00 +13°C° 0 mm 3 mps 749 mmHg 88%
07:00 +16°C° 0 mm 3 mps 749 mmHg 84%
08:00 +18°C° 0 mm 3 mps 749 mmHg 79%
09:00 +19°C° 0.1 mm 3 mps 750 mmHg 74%
10:00 +20°C° 0.1 mm 4 mps 750 mmHg 69%
11:00 +21°C° 0.1 mm 4 mps 750 mmHg 65%
12:00 +21°C° 0.1 mm 4 mps 750 mmHg 63%
13:00 +21°C° 0.1 mm 4 mps 750 mmHg 62%
14:00 +22°C° 0.1 mm 4 mps 751 mmHg 60%
15:00 +22°C° 0.1 mm 3 mps 751 mmHg 63%
16:00 +21°C° 0.1 mm 3 mps 751 mmHg 66%
17:00 +21°C° 0.1 mm 2 mps 751 mmHg 69%
18:00 +19°C° 0 mm 2 mps 751 mmHg 73%
19:00 +19°C° 0 mm 1 mps 752 mmHg 77%
20:00 +16°C° 0 mm 1 mps 752 mmHg 81%
21:00 +15°C° 0 mm 1 mps 752 mmHg 82%
22:00 +15°C° 0 mm 1 mps 753 mmHg 83%
23:00 +14°C° 0 mm 1 mps 753 mmHg 85%

11 July, Saturday

Time Temperature Precipitation Wind Pressure Humidity
00:00 +14°C° 0 mm 1 mps 753 mmHg 86%
01:00 +13°C° 0 mm 1 mps 753 mmHg 86%
02:00 +13°C° 0 mm 1 mps 753 mmHg 87%
03:00 +14°C° 0 mm 1 mps 754 mmHg 87%
04:00 +14°C° 0 mm 1 mps 754 mmHg 86%
05:00 +15°C° 0 mm 1 mps 754 mmHg 86%
06:00 +16°C° 0 mm 1 mps 754 mmHg 82%
07:00 +19°C° 0 mm 1 mps 754 mmHg 77%
08:00 +20°C° 0 mm 1 mps 754 mmHg 73%
09:00 +20°C° 0 mm 2 mps 754 mmHg 69%
10:00 +23°C° 0 mm 2 mps 754 mmHg 65%
11:00 +24°C° 0 mm 2 mps 754 mmHg 61%
12:00 +24°C° 0 mm 2 mps 754 mmHg 60%
13:00 +24°C° 0 mm 2 mps 754 mmHg 59%
14:00 +25°C° 0 mm 3 mps 754 mmHg 58%
15:00 +25°C° 0 mm 2 mps 753 mmHg 62%
16:00 +24°C° 0 mm 2 mps 753 mmHg 65%
17:00 +24°C° 0 mm 2 mps 753 mmHg 69%
18:00 +21°C° 0 mm 2 mps 753 mmHg 72%
19:00 +20°C° 0 mm 2 mps 753 mmHg 76%
20:00 +18°C° 0 mm 2 mps 753 mmHg 79%
21:00 +17°C° 0 mm 2 mps 753 mmHg 81%
22:00 +17°C° 0 mm 2 mps 753 mmHg 83%
23:00 +16°C° 0 mm 2 mps 753 mmHg 85%
Show more